Track COSMOS 2492 (GLONASS) now! COSMOS 2492 (GLONASS) is classified as:
1 39620U 14012A 23264.81441211 -.00000060 00000-0 00000-0 0 9994 2 39620 65.7626 347.6833 0011829 313.8640 46.0920 2.13103076 73941